Kahului, HI

1:29 PM HST on February 05, 2016 (GMT -1000)
Kahului

Weather History for PHOG - September, 2014

Change the Weather History Date:

Friday, September 5, 2014

  Actual Average Record
Temperature  
Mean Temperature 82 °F 80 °F  
Max Temperature 89 °F 88 °F 92 °F (1953)
Min Temperature 74 °F 71 °F 19 °F (2012)
Degree Days  
Heating Degree Days 0 0  
Month to date heating degree days 0 0  
Since 1 July heating degree days 0 0  
Cooling Degree Days 17 14  
Month to date cooling degree days 82 72  
Year to date cooling degree days 2970 2614  
Growing Degree Days 31 (Base 50)    
Moisture  
Dew Point 69 °F    
Average Humidity 73    
Maximum Humidity 93    
Minimum Humidity 53    
Precipitation  
Precipitation 0.01 in 0.02 in 0.03 in (1969)
Month to date precipitation 0.01 0.06  
Year to date precipitation 15.66 10.76  
Snow  
Snow 0.00 in - - ()
Month to date snowfall 0.0  
Since 1 July snowfall 0.0  
Since 1 September snowfall 0.0  
Snow Depth 0.00 in    
Sea Level Pressure  
Sea Level Pressure 29.96 in    
Wind  
Wind Speed 13 mph (NNE)    
Max Wind Speed 25 mph    
Max Gust Speed 29 mph    
Visibility 10 miles    
Events Rain    
T = Trace of Precipitation, MM = Missing Value Source: NWS Daily Summary

Daily Weather History Graph

Daily Weather History Graph

Search for Another Location

Airport or City:

Trip Planner

Search our weather history database for the weather conditions in past years. The results will help you decide how hot, cold, wet, or windy it might be!

Date:

Astronomy

Sep. 05, 2014 Rise Set
Actual Time 6:10 AM HST 6:37 PM HST
Civil Twilight 5:48 AM HST 7:00 PM HST
Nautical Twilight 5:22 AM HST 7:26 PM HST
Astronomical Twilight 4:55 AM HST 7:52 PM HST
Moon 3:58 PM HST 2:36 AM HST
Length of Visible Light 13h 11m
Length of Day
12h 27m
Waxing Gibbous, 86% of the Moon is Illuminated
Sep 5
Waxing Gibbous
Sep 8
Full
Sep 15
Last Quarter
Sep 23
New
Oct 1
First Quarter

Hourly Weather History & Observations

Time (HST) Temp. Heat Index Dew Point Humidity Pressure Visibility Wind Dir Wind Speed Gust Speed Precip Events Conditions
12:54 AM 75.0 °F - 69.1 °F 82% 29.97 in 10.0 mi NNE 4.6 mph - 0.00 in Rain Light Rain
2:54 AM 75.9 °F - 69.1 °F 79% 29.94 in 10.0 mi North 5.8 mph - N/A   Mostly Cloudy
3:54 AM 75.9 °F - 69.1 °F 79% 29.93 in 10.0 mi ENE 4.6 mph - N/A   Scattered Clouds
4:54 AM 75.0 °F - 69.1 °F 82% 29.94 in 10.0 mi NE 5.8 mph - N/A   Mostly Cloudy
5:54 AM 73.9 °F - 71.1 °F 91% 29.95 in 10.0 mi NNE 9.2 mph - 0.01 in   Scattered Clouds
6:54 AM 75.9 °F - 70.0 °F 82% 29.96 in 10.0 mi North 8.1 mph - N/A   Scattered Clouds
7:54 AM 81.0 °F 84.4 °F 70.0 °F 69% 29.97 in 10.0 mi NNE 11.5 mph - N/A   Scattered Clouds
8:54 AM 84.0 °F 88.4 °F 70.0 °F 63% 29.98 in 10.0 mi NNE 15.0 mph - N/A   Scattered Clouds
9:54 AM 84.9 °F 90.1 °F 71.1 °F 63% 29.98 in 10.0 mi NNE 17.3 mph - N/A   Scattered Clouds
10:54 AM 88.0 °F 91.4 °F 68.0 °F 51% 29.97 in 10.0 mi NNE 23.0 mph - N/A   Scattered Clouds
11:54 AM 88.0 °F 92.9 °F 70.0 °F 55% 29.96 in 10.0 mi NNE 21.9 mph - N/A   Scattered Clouds
12:54 PM 87.1 °F 92.0 °F 70.0 °F 57% 29.94 in 10.0 mi NNE 21.9 mph - N/A   Scattered Clouds
1:54 PM 88.0 °F 92.1 °F 69.1 °F 53% 29.92 in 10.0 mi NNE 21.9 mph - N/A   Scattered Clouds
2:54 PM 87.1 °F 92.0 °F 70.0 °F 57% 29.92 in 10.0 mi NNE 17.3 mph 25.3 mph N/A   Scattered Clouds
3:54 PM 86.0 °F 90.7 °F 70.0 °F 59% 29.91 in 10.0 mi NNE 19.6 mph - N/A   Scattered Clouds
4:54 PM 84.0 °F 89.0 °F 71.1 °F 65% 29.92 in 10.0 mi NNE 20.7 mph - N/A   Scattered Clouds
5:54 PM 82.9 °F 86.5 °F 69.1 °F 63% 29.94 in 10.0 mi NNE 17.3 mph - N/A   Scattered Clouds
6:54 PM 80.1 °F 83.2 °F 70.0 °F 71% 29.96 in 10.0 mi NE 16.1 mph - N/A   Scattered Clouds
7:54 PM 79.0 °F - 70.0 °F 74% 29.99 in 10.0 mi NE 9.2 mph - N/A   Scattered Clouds
8:54 PM 78.1 °F - 66.9 °F 68% 30.01 in 10.0 mi NE 5.8 mph - N/A   Scattered Clouds
9:54 PM 77.0 °F - 66.0 °F 69% 30.02 in 10.0 mi NE 4.6 mph - N/A   Partly Cloudy
10:54 PM 75.9 °F - 66.9 °F 74% 30.01 in 10.0 mi NE 5.8 mph - N/A   Clear
11:54 PM 75.9 °F - 68.0 °F 76% 30.00 in 10.0 mi NNE 6.9 mph - N/A   Mostly Cloudy